Telluride, CO

12:40 AM MST on November 15, 2019 (GMT -0700)
Telluride Regional

Weather History for KTEX - October, 2019

Change the Weather History Date:

Tuesday, October 22, 2019

  Actual Average Record
Temperature  
Mean Temperature 38 °F -  
Max Temperature 50 °F 45 °F 64 °F (2016)
Min Temperature 26 °F 29 °F 14 °F (1996)
Degree Days  
Heating Degree Days 27    
Moisture  
Dew Point 21 °F    
Average Humidity 55    
Maximum Humidity 75    
Minimum Humidity 32    
Precipitation  
Precipitation 0.00 in - - ()
Sea Level Pressure  
Sea Level Pressure 30.37 in    
Wind  
Wind Speed 3 mph (SW)    
Max Wind Speed 15 mph    
Max Gust Speed 21 mph    
Visibility 10 miles    
Events      
Averages and records for this station are not official NWS values.
T = Trace of Precipitation, MM = Missing Value Source: NWS Daily Summary

Daily Weather History Graph

Daily Weather History Graph

Search for Another Location

Airport or City:

Astronomy

Oct. 22, 2019 Rise Set
Actual Time 7:26 AM MDT 6:24 PM MDT
Civil Twilight 7:00 AM MDT 6:51 PM MDT
Nautical Twilight 6:29 AM MDT 7:22 PM MDT
Astronomical Twilight 5:58 AM MDT 7:52 PM MDT
Moon 12:48 AM MDT (10/22) 3:28 PM MDT (10/22)
Length of Visible Light 11h 51m
Length of Day
10h 57m
Last Quarter, 36% of the Moon is Illuminated
Oct 22
Last Quarter
Oct 27
New
Nov 4
First Quarter
Nov 12
Full
Nov 19
Last Quarter

Hourly Weather History & Observations

Time (MDT) Temp. Windchill Dew Point Humidity Pressure Visibility Wind Dir Wind Speed Gust Speed Precip Events Conditions
12:15 AM 30.2 °F - 17.6 °F 60% 30.37 in 10.0 mi Calm Calm - N/A   Clear
12:35 AM 30.2 °F 25.4 °F 17.6 °F 60% 30.38 in 10.0 mi SSE 4.6 mph - N/A   Clear
12:55 AM 30.2 °F 26.7 °F 15.8 °F 55% 30.38 in 10.0 mi South 3.5 mph - N/A   Clear
1:15 AM 30.2 °F - 17.6 °F 60% 30.38 in 10.0 mi Calm Calm - N/A   Clear
1:35 AM 30.2 °F - 17.6 °F 60% 30.39 in 10.0 mi Calm Calm - N/A   Clear
1:55 AM 30.2 °F 24.3 °F 17.6 °F 60% 30.39 in 10.0 mi South 5.8 mph - N/A   Clear
2:15 AM 28.4 °F - 17.6 °F 64% 30.39 in 10.0 mi Calm Calm - N/A   Clear
2:35 AM 30.2 °F - 15.8 °F 55% 30.40 in 10.0 mi Calm Calm - N/A   Clear
2:55 AM 28.4 °F - 17.6 °F 64% 30.40 in 10.0 mi Calm Calm - N/A   Clear
3:15 AM 30.2 °F - 15.8 °F 55% 30.40 in 10.0 mi Calm Calm - N/A   Clear
3:35 AM 28.4 °F - 15.8 °F 59% 30.40 in 10.0 mi Calm Calm - N/A   Clear
3:55 AM 30.2 °F - 15.8 °F 55% 30.39 in 10.0 mi Calm Calm - N/A   Clear
4:15 AM 30.2 °F - 17.6 °F 60% 30.39 in 10.0 mi Calm Calm - N/A   Clear
4:35 AM 28.4 °F - 17.6 °F 64% 30.38 in 10.0 mi Calm Calm - N/A   Clear
4:55 AM 28.4 °F - 17.6 °F 64% 30.38 in 10.0 mi Calm Calm - N/A   Clear
5:15 AM 28.4 °F 24.6 °F 17.6 °F 64% 30.39 in 10.0 mi ESE 3.5 mph - N/A   Clear
5:35 AM 26.6 °F 22.6 °F 17.6 °F 69% 30.39 in 10.0 mi ESE 3.5 mph - N/A   Clear
5:55 AM 28.4 °F 24.6 °F 17.6 °F 64% 30.40 in 10.0 mi SSE 3.5 mph - N/A   Clear
6:15 AM 28.4 °F 22.2 °F 17.6 °F 64% 30.40 in 10.0 mi ESE 5.8 mph - N/A   Clear
6:35 AM 26.6 °F 21.2 °F 17.6 °F 69% 30.40 in 10.0 mi ESE 4.6 mph - N/A   Clear
6:55 AM 26.6 °F 21.2 °F 17.6 °F 69% 30.40 in 10.0 mi SE 4.6 mph - N/A   Clear
7:15 AM 26.6 °F 22.6 °F 17.6 °F 69% 30.40 in 10.0 mi SE 3.5 mph - N/A   Clear
7:35 AM 26.6 °F 20.0 °F 17.6 °F 69% 30.40 in 10.0 mi SE 5.8 mph - N/A   Clear
7:55 AM 26.6 °F - 17.6 °F 69% 30.39 in 10.0 mi Calm Calm - N/A   Clear
8:15 AM 28.4 °F - 19.4 °F 69% 30.40 in 10.0 mi Calm Calm - N/A   Clear
8:35 AM 30.2 °F - 19.4 °F 64% 30.41 in 10.0 mi Calm Calm - N/A   Clear
8:55 AM 30.2 °F - 19.4 °F 64% 30.42 in 10.0 mi Calm Calm - N/A   Clear
9:15 AM 32.0 °F - 19.4 °F 60% 30.43 in 10.0 mi Calm Calm - N/A   Clear
9:35 AM 33.8 °F - 19.4 °F 56% 30.43 in 10.0 mi Calm Calm - N/A   Clear
9:55 AM 35.6 °F - 19.4 °F 52% 30.43 in 10.0 mi Calm Calm - N/A   Clear
10:15 AM 37.4 °F - 19.4 °F 48% 30.43 in 10.0 mi Calm Calm - N/A   Clear
10:35 AM 39.2 °F 37.0 °F 19.4 °F 45% 30.42 in 10.0 mi WSW 3.5 mph - N/A   Clear
10:55 AM 39.2 °F 35.0 °F 19.4 °F 45% 30.42 in 10.0 mi WSW 5.8 mph - N/A   Clear
11:15 AM 41.0 °F 38.0 °F 19.4 °F 42% 30.41 in 10.0 mi West 4.6 mph - N/A   Clear
11:35 AM 42.8 °F 41.1 °F 19.4 °F 39% 30.41 in 10.0 mi WSW 3.5 mph - N/A   Clear
11:55 AM 44.6 °F 42.2 °F 21.2 °F 39% 30.40 in 10.0 mi SW 4.6 mph - N/A   Clear
12:15 PM 46.4 °F 43.5 °F 21.2 °F 37% 30.40 in 10.0 mi West 5.8 mph - N/A   Clear
12:35 PM 46.4 °F 42.9 °F 21.2 °F 37% 30.39 in 10.0 mi West 6.9 mph - N/A   Clear
12:55 PM 46.4 °F 41.1 °F 21.2 °F 37% 30.37 in 10.0 mi West 11.5 mph 17.3 mph N/A   Clear
1:15 PM 46.4 °F 41.1 °F 21.2 °F 37% 30.36 in 10.0 mi West 11.5 mph - N/A   Clear
1:35 PM 48.2 °F - 21.2 °F 34% 30.35 in 10.0 mi West 12.7 mph 16.1 mph N/A   Clear
1:55 PM 48.2 °F - 21.2 °F 34% 30.34 in 10.0 mi West 10.4 mph - N/A   Clear
2:15 PM 50.0 °F - 21.2 °F 32% 30.33 in 10.0 mi West 10.4 mph - N/A   Clear
2:35 PM 50.0 °F - 21.2 °F 32% 30.33 in 10.0 mi West 12.7 mph - N/A   Clear
2:55 PM 50.0 °F - 21.2 °F 32% 30.32 in 10.0 mi West 10.4 mph - N/A   Clear
3:15 PM 50.0 °F - 21.2 °F 32% 30.32 in 10.0 mi West 12.7 mph - N/A   Clear
3:35 PM 50.0 °F - 21.2 °F 32% 30.33 in 10.0 mi West 15.0 mph - N/A   Clear
3:55 PM 48.2 °F - 21.2 °F 34% 30.33 in 10.0 mi West 13.8 mph - N/A   Clear
4:10 PM 48.2 °F - 21.2 °F 34% 30.33 in 10.0 mi West 12.7 mph 20.7 mph N/A   Clear
4:35 PM 48.2 °F - 23.0 °F 37% 30.34 in 10.0 mi West 10.4 mph - N/A   Clear
4:55 PM 46.4 °F 40.4 °F 23.0 °F 40% 30.35 in 10.0 mi West 13.8 mph - N/A   Clear
5:15 PM 46.4 °F 41.5 °F 24.8 °F 43% 30.35 in 10.0 mi West 10.4 mph - N/A   Clear
5:35 PM 44.6 °F 38.1 °F 26.6 °F 49% 30.35 in 10.0 mi West 13.8 mph - N/A   Clear
5:55 PM 44.6 °F 38.8 °F 26.6 °F 49% 30.35 in 10.0 mi West 11.5 mph - N/A   Clear
6:15 PM 42.8 °F 38.0 °F 26.6 °F 53% 30.35 in 10.0 mi West 8.1 mph - N/A   Clear
6:35 PM 41.0 °F 38.0 °F 26.6 °F 57% 30.35 in 10.0 mi West 4.6 mph - N/A   Clear
6:55 PM 41.0 °F - 26.6 °F 57% 30.35 in 10.0 mi Calm Calm - N/A   Clear
7:15 PM 41.0 °F 38.0 °F 26.6 °F 57% 30.35 in 10.0 mi West 4.6 mph - N/A   Clear
7:35 PM 39.2 °F 35.9 °F 26.6 °F 61% 30.35 in 10.0 mi WSW 4.6 mph - N/A   Clear
7:55 PM 37.4 °F 34.9 °F 26.6 °F 65% 30.35 in 10.0 mi SSW 3.5 mph - N/A   Clear
8:15 PM 37.4 °F - 26.6 °F 65% 30.34 in 10.0 mi Calm Calm - N/A   Clear
8:35 PM 35.6 °F - 26.6 °F 70% 30.33 in 10.0 mi Calm Calm - N/A   Clear
8:55 PM 35.6 °F - 26.6 °F 70% 30.33 in 10.0 mi Calm Calm - N/A   Clear
9:15 PM 35.6 °F - 24.8 °F 65% 30.33 in 10.0 mi Calm Calm - N/A   Clear
9:35 PM 35.6 °F 32.8 °F 26.6 °F 70% 30.34 in 10.0 mi South 3.5 mph - N/A   Clear
9:55 PM 33.8 °F - 24.8 °F 70% 30.34 in 10.0 mi Calm Calm - N/A   Clear
10:15 PM 33.8 °F - 24.8 °F 70% 30.35 in 10.0 mi Calm Calm - N/A   Clear
10:35 PM 33.8 °F 30.8 °F 24.8 °F 70% 30.35 in 10.0 mi SSE 3.5 mph - N/A   Clear
10:55 PM 33.8 °F 29.6 °F 26.6 °F 75% 30.35 in 10.0 mi SE 4.6 mph - N/A   Scattered Clouds
11:15 PM 32.0 °F - 24.8 °F 75% 30.34 in 10.0 mi Calm Calm - N/A   Clear
11:35 PM 32.0 °F - 24.8 °F 75% 30.33 in 10.0 mi Calm Calm - N/A   Clear
11:55 PM 33.8 °F - 24.8 °F 70% 30.33 in 10.0 mi Calm Calm - N/A   Clear